Location: Newark
(3.0500°N, 36.0167°E)
Time: 05:19:49
(UTC+00:00)

SR - All Passes

Search period start: 22 August 2019 00:00
Search period end: 01 September 2019 00:00
Orbit: 578 x 878 km, 66.7° (Epoch: 20 August)

Date Brightness Start Highest point End Pass type
(mag) Time Alt. Az. Time Alt. Az. Time Alt. Az.
22 Aug - 08:04:42 10° SSE 08:08:03 23° ESE 08:11:25 10° ENE daylight
22 Aug - 09:47:57 10° W 09:49:49 13° WNW 09:51:42 10° NW daylight
22 Aug - 20:26:42 10° NNW 20:32:37 88° WSW 20:38:29 10° SSE night (unlit)
23 Aug - 08:56:19 10° SW 09:00:13 37° WNW 09:04:11 10° N daylight
23 Aug - 19:37:35 10° N 19:43:01 39° ENE 19:48:28 10° SE night (unlit)
23 Aug - 21:21:12 10° WNW 21:24:52 17° WSW 21:28:31 10° SSW night (unlit)
24 Aug - 08:06:30 10° SSW 08:10:40 66° ESE 08:14:54 10° NNE daylight
24 Aug - 18:49:45 10° NNE 18:53:24 17° ENE 18:57:03 10° ESE night (unlit)
24 Aug - 20:29:51 10° NW 20:35:19 40° WSW 20:40:45 10° S night (unlit)
25 Aug - 07:17:58 10° SSE 07:21:10 21° ESE 07:24:22 10° ENE daylight
25 Aug - 09:00:40 10° W 09:02:55 14° WNW 09:05:11 10° NW daylight
25 Aug - 19:39:51 10° NNW 19:45:46 86° ENE 19:51:37 10° SSE night (unlit)
26 Aug - 08:09:20 10° SW 08:13:18 41° WNW 08:17:22 10° N daylight
26 Aug - 18:50:49 10° N 18:56:10 37° ENE 19:01:30 10° SE night (unlit)
26 Aug - 20:34:06 10° WNW 20:38:00 18° WSW 20:41:54 10° SSW night (unlit)
27 Aug - 07:19:38 10° S 07:23:47 59° ESE 07:27:59 10° NNE daylight
27 Aug - 18:03:09 10° NNE 18:06:32 16° ENE 18:09:53 10° ESE night (unlit)
27 Aug - 19:42:55 10° NW 19:48:28 43° WSW 19:53:57 10° S night (unlit)
28 Aug - 06:31:15 10° SSE 06:34:16 19° ESE 06:37:18 10° ENE daylight
28 Aug - 08:13:28 10° WSW 08:16:00 16° WNW 08:18:35 10° NNW daylight
28 Aug - 18:53:00 10° NNW 18:58:55 81° ENE 19:04:45 10° SSE visible
29 Aug - 07:22:22 10° SW 07:26:24 46° WNW 07:30:33 10° N daylight
29 Aug - 18:04:02 10° N 18:09:19 34° ENE 18:14:33 10° SE visible
29 Aug - 19:47:00 10° WNW 19:51:09 20° WSW 19:55:15 10° SSW night (unlit)
30 Aug - 06:32:46 10° S 06:36:52 53° ESE 06:41:04 10° NNE daylight
30 Aug - 17:16:37 10° NE 17:19:40 14° ENE 17:22:42 10° E visible
30 Aug - 18:56:00 10° NW 19:01:36 46° WSW 19:07:09 10° S visible
31 Aug - 05:44:34 10° SSE 05:47:22 17° ESE 05:50:12 10° ENE daylight
31 Aug - 07:26:19 10° WSW 07:29:06 17° WNW 07:31:57 10° NNW daylight
31 Aug - 18:06:09 10° NNW 18:12:03 75° ENE 18:17:52 10° SSE visible
